Location: Mason Neck State Park
(38.6428°N, 77.1981°W)
Time: 10:35:40
(UTC-05:00)

ISS - Visible Passes

Search period start: 06 February 2016 00:00
Search period end: 16 February 2016 00:00
Orbit: 399 x 408 km, 51.6° (Epoch: 06 February)

Date Brightness Start Highest point End Pass type
(mag) Time Alt. Az. Time Alt. Az. Time Alt. Az.
06 Feb -0.8 18:58:31 10° NW 19:00:15 14° NNW 19:01:38 11° N visible
07 Feb -1.1 18:05:03 10° WNW 18:07:27 19° NNW 18:09:52 10° NNE visible
13 Feb -0.9 19:18:16 10° NNW 19:19:18 13° N 19:19:18 13° N visible
14 Feb -0.9 18:26:13 10° N 18:27:12 11° NNE 18:28:10 10° NNE visible
14 Feb -0.2 20:01:20 10° NW 20:01:35 12° NW 20:01:35 12° NW visible
15 Feb -1.8 19:08:55 10° NNW 19:11:17 22° NNE 19:11:17 22° NNE visible
